Regional Weather Roundup
Issued by NWS Green Bay, WI

Home | Current Version | Previous Version | Graphics & Text | Print | Product List | Glossary Off
Versions: 1 2 3 4 5 6 7 8 9 10 11 12 13 14 15 16 17 18 19 20 21 22 23 24 25 26 27 28 29 30 31 32 33 34 35 36 37 38 39 40 41 42 43 44 45 46 47 48 49 50

000
ASUS43 KGRB 090700
RWRGRB

NORTH-CENTRAL AND NORTHEAST WISCONSIN REGIONAL WEATHER ROUNDUP
NATIONAL WEATHER SERVICE GREEN BAY WI
100 AM CST FRI DEC 09 2016

WIZ005-009-010>012-018-019-090800-
NORTH CENTRAL WISCONSIN

CITY           SKY/WX    TMP DP  RH WIND       PRES   REMARKS
IRONWOOD       FLURRIES  18  11  74 NW10      30.36R WCI   6
MANITOWISH WTR NOT AVBL
ARBOR VITAE    NOT AVBL
EAGLE RIVER    NOT AVBL
LAND O LAKES   NOT AVBL
RHINELANDER    CLOUDY    19  12  74 NW10      30.31R WCI   7
PHILLIPS       NOT AVBL
ANTIGO         NOT AVBL
TOMAHAWK       NOT AVBL
MERRILL        NOT AVBL
$$

WIZ013-073-090800-
NORTHEAST WISCONSIN

CITY           SKY/WX    TMP DP  RH WIND       PRES   REMARKS
IRON MOUNTAIN  CLEAR     17  10  74 NW9       30.29R WCI   6
MARINETTE      CLEAR     22  13  68 NW9G18    30.33S
$$

WIZ017-030-035>037-045-090800-
CENTRAL WISCONSIN

CITY           SKY/WX    TMP DP  RH WIND       PRES   REMARKS
MEDFORD        NOT AVBL
WAUSAU         FLURRIES  18  14  84 W8        30.35R WCI   8
MOSINEE        NOT AVBL
MARSHFIELD     CLOUDY    17  10  74 W8        30.37R WCI   7
WISC RAPIDS    CLEAR     18  12  77 W7        30.40S WCI   9
STEVENS POINT  NOT AVBL
WAUPACA        NOT AVBL
SHAWANO        NOT AVBL
CLINTONVILLE   NOT AVBL
WAUTOMA        PTCLDY    21  14  74 NW9       30.40R
$$

WIZ038-039-048-051-090800-
FOX VALLEY

CITY           SKY/WX    TMP DP  RH WIND       PRES   REMARKS
NWS GREEN BAY  CLEAR     24  16  71 W12       30.35S
APPLETON       NOT AVBL
OSHKOSH        CLEAR     20  14  77 W7        30.37R
FOND DU LAC    CLEAR     21  13  71 W9        30.38R
$$

WIZ022-050-052-090800-
EAST CENTRAL WISCONSIN

CITY           SKY/WX    TMP DP  RH WIND       PRES   REMARKS
EPHRAIM        NOT AVBL
WASHINGTON ISL NOT AVBL
STURGEON BAY   CLEAR     24  15  68 NW15G22   30.32R
MANITOWOC      NOT AVBL
SHEBOYGAN      CLEAR     23  14  68 NW13      30.36R
$$

LMZ563-521-522-541>543-090800-
LAKESHORE

STATION/POSITION TIME  TEMP    WIND        PRES    VSBY  WAVE
                       AIR SEA DIR/SP/G                  HT/PER
                 (UTC) (F)     (DEG/KT/KT) (MB)    (MI)  (FT/S)
SHEBOYGAN LKSHOR 0600   24     290/ 14/ 19 1028.5R
KEWAUNEE LKSHORE 0630   24     310/  6/ 10 1026.4R
ALGOMA MARINA    0606          320/  8/ 11   N/A
NORTHPORT PIER   0640   27     300/ 20/ 26 1025.7R
SISTER BAY LKSHO 0550   28     320/ 26/ 30   N/A
CHAMBERS ISLAND  0640   24     290/ 10/ 18 1026.1R
MENOMINEE LKSHOR 0630   23     280/  9/ 15 1025.8R
$$




USA.gov is the U.S. government's official web portal to all federal, state and local government web resources and services.